RH
99 101 102 103 105 105 104 103 105 106 105 103 103 102 102 107 109 105 104 106 106 106 107 107 105 104 106 103 97 93 91 90 88 84 82 79 77 76 74 70 65 60 58 58 58 60 63 66 67 67 65 64 62 60 58 58 60 61 62 63 65 66 65
98 99 100 101 101 101 101 100 101 103 103 103 106 107 103 105 109 107 105 105 106 105 106 106 104 104 104 101 96 94 93 92 88 83 81 79 77 77 75 72 67 62 58 57 55 56 59 61 62 64 65 65 64 61 60 60 62 64 64 65 65 65 65
98 98 100 101 101 101 102 100 100 101 102 102 105 106 103 103 107 109 108 107 106 104 103 102 101 101 101 98 95 95 95 94 90 86 84 83 81 79 77 74 69 64 60 58 57 56 58 61 64 66 68 68 67 66 65 65 66 66 66 66 66 67 67
99 99 98 99 100 101 102 101 101 102 101 101 102 103 101 101 103 104 105 106 105 102 100 99 98 100 102 101 98 99 99 98 95 92 90 89 87 84 82 78 74 70 66 64 62 61 63 66 69 70 71 71 70 69 69 69 69 68 68 69 69 69 70
102 103 102 102 101 100 100 101 101 101 100 100 101 103 103 102 102 101 101 102 102 101 101 100 100 102 104 104 101 99 101 102 101 98 97 96 94 92 89 85 81 78 75 74 72 71 71 72 73 75 75 75 75 75 73 73 73 74 75 75 75 75 75
84 89 93 98 99 99 101 102 102 103 103 101 101 101 101 101 101 101 101 101 101 102 102 103 103 102 103 103 101 100 101 105 106 103 101 100 99 98 97 92 90 89 89 88 87 83 79 78 79 81 82 82 82 81 78 77 79 81 82 82 80 78 75
53 58 63 69 75 79 84 89 93 97 100 101 101 102 102 101 102 102 101 100 101 101 100 101 101 101 101 100 100 101 103 104 104 103 102 102 102 100 100 99 100 103 104 101 96 91 86 84 84 85 87 87 86 84 81 80 82 82 80 76 72 68 64
38 40 41 44 47 50 54 58 63 67 72 78 84 90 94 98 102 105 105 105 105 104 103 102 101 101 103 102 102 104 105 105 104 105 106 107 106 105 105 107 109 110 110 106 100 95 88 83 80 79 79 78 74 71 68 65 63 60 54 51 48 45 42
33 33 34 35 36 37 37 39 40 42 44 47 52 57 64 70 78 85 90 95 99 102 104 105 106 107 109 110 109 109 110 111 111 112 111 110 111 111 109 107 105 102 98 92 86 79 69 61 56 53 51 49 45 43 42 39 36 34 32 31 29 27 26
28 29 30 31 32 33 34 34 34 34 34 34 35 36 39 42 46 51 56 62 68 74 80 84 88 91 93 95 96 97 98 98 97 95 93 91 90 87 83 78 72 67 62 56 51 46 40 36 33 32 31 31 31 31 30 29 28 27 26 25 23 22 22
23 24 25 27 28 30 31 31 31 31 31 30 30 30 30 31 33 35 37 39 43 47 51 54 57 60 62 63 64 65 64 63 61 59 57 55 52 49 46 43 40 38 36 35 33 32 30 29 29 29 28 29 29 29 29 27 26 24 23 22 21 22 22
20 21 21 21 21 22 22 22 22 23 23 23 24 24 24 25 25 27 28 29 31 32 34 36 37 38 39 39 40 40 40 39 38 37 36 35 34 33 32 32 32 33 32 31 31 30 29 27 27 27 27 27 27 26 25 24 23 22 21 21 20 21 21
17 16 15 15 15 14 14 14 14 14 15 15 16 16 17 17 18 19 21 22 22 23 24 25 26 26 27 28 28 28 28 28 28 28 28 28 27 27 28 28 28 28 28 27 26 25 25 25 25 25 25 25 24 23 22 22 22 21 20 18 18 18 19
12 11 11 11 11 11 11 11 11 12 12 12 13 13 13 13 14 15 16 16 17 18 18 19 19 19 20 21 22 22 22 23 23 22 22 22 22 23 23 23 23 24 24 24 23 22 22 23 23 23 24 23 22 21 20 20 19 17 16 15 15 15 16
9 9 9 9 9 9 10 10 10 10 10 11 11 11 12 12 13 13 13 14 14 15 15 16 16 17 17 18 19 19 20 20 19 19 19 19 20 20 20 20 21 22 22 22 21 20 20 20 20 20 20 19 17 16 16 15 14 13 13 13 13 13 14
8 8 8 8 8 8 8 8 8 9 9 9 9 9 10 10 11 11 11 11 12 12 13 13 13 14 14 15 15 16 16 16 16 15 16 16 16 16 16 17 18 18 18 17 16 16 15 15 15 14 14 13 13 12 12 12 12 11 12 12 12 12 12
7 7 7 7 7 7 7 7 7 7 7 7 7 7 8 8 8 9 9 9 9 9 9 10 10 10 10 10 11 11 11 11 11 11 11 12 12 12 12 13 13 13 13 12 11 11 11 11 11 11 11 11 11 10 10 10 10 10 11 10 10 10 11
6 6 6 6 6 6 7 7 7 7 7 7 7 7 7 7 7 7 7 7 7 7 8 8 8 8 9 9 9 10 10 10 10 10 10 10 10 10 10 11 11 11 10 10 9 9 9 9 9 9 9 9 9 9 9 9 10 10 10 10 10 11 11
6 6 6 6 6 6 6 6 6 6 6 6 6 6 6 7 7 7 7 7 7 7 8 8 8 8 8 9 9 9 9 9 9 9 9 9 9 9 9 9 9 9 8 8 8 8 8 9 9 9 9 9 9 10 10 10 10 10 10 10 11 11 11
6 6 6 6 6 6 6 6 6 6 6 6 6 6 6 6 6 7 7 7 7 7 7 8 8 8 8 8 8 8 8 8 8 8 8 8 8 8 8 9 9 9 9 9 9 9 9 9 9 9 10 10 10 10 10 11 11 10 10 11 11 11 11
6 6 6 6 6 6 6 6 6 6 6 6 6 6 6 6 6 6 6 7 7 7 7 7 7 7 7 8 8 8 8 8 8 8 8 8 9 9 9 9 9 9 9 9 9 10 10 10 10 10 10 11 12 11 11 11 11 11 10 10 11 11 11
6 6 6 6 6 6 6 5 5 6 5 5 5 5 5 5 6 6 6 6 7 7 7 7 8 8 8 8 9 9 9 9 9 9 8 8 9 9 9 9 9 9 9 9 10 10 11 11 11 11 11 11 11 12 11 11 11 11 10 10 10 10 11
6 6 6 6 6 6 6 6 6 6 6 6 5 5 5 6 6 6 6 7 8 8 8 9 9 9 9 9 9 9 9 9 9 9 9 8 8 9 9 9 9 9 9 9 10 10 11 11 11 11 11 11 11 11 10 10 10 10 11 11 11 10 11
6 6 6 6 6 6 6 6 6 6 6 6 6 6 6 6 6 7 7 8 8 9 9 10 9 9 9 9 9 9 9 9 9 9 9 9 9 9 9 9 9 9 10 9 9 10 10 11 11 11 10 10 10 9 9 9 9 10 10 10 10 10 10
6 6 6 6 6 6 6 6 6 6 6 6 6 6 6 6 7 7 7 8 9 9 9 9 9 9 9 9 9 9 9 9 9 10 10 10 9 9 9 9 8 9 9 9 9 9 9 10 10 10 10 10 9 8 8 9 9 8 8 9 9 9 10
6 6 6 6 6 6 6 6 6 6 6 6 6 6 6 7 7 7 7 8 8 8 8 8 8 8 9 9 9 9 9 9 9 9 9 9 9 9 8 8 8 8 8 9 9 9 9 9 9 9 9 9 9 9 9 8 8 8 8 8 8 9 9
6 6 6 6 5 5 6 6 5 5 5 5 6 6 6 7 7 7 7 7 7 7 7 7 7 8 8 9 9 9 9 8 8 8 8 8 8 8 8 8 7 7 8 8 8 9 9 9 9 9 9 8 8 8 8 8 8 8 8 8 8 8 8
6 6 6 6 5 5 6 5 5 5 5 5 5 5 6 7 7 7 7 7 7 7 7 7 7 8 8 8 8 8 8 8 8 8 8 8 8 7 7 7 7 7 7 7 8 8 8 9 9 9 9 9 8 8 8 8 8 8 8 8 7 7 8
6 6 6 6 6 6 6 6 6 5 5 5 5 6 6 6 6 6 6 7 7 7 7 7 7 7 7 7 8 8 8 8 8 8 8 8 8 8 7 7 7 7 7 7 7 7 8 8 8 9 9 9 10 9 9 9 8 8 7 7 7 7 8
6 7 6 6 6 6 6 6 6 5 5 5 5 6 6 6 6 6 6 7 7 6 7 7 7 7 7 7 7 8 8 8 8 8 8 8 8 8 8 8 8 7 7 7 7 7 7 7 7 8 8 9 10 10 10 10 9 8 8 7 7 7 7
7 7 7 7 7 7 6 6 6 6 6 5 6 6 6 6 6 6 7 7 7 7 7 7 7 7 7 7 7 7 7 8 8 8 8 8 8 8 8 8 8 8 7 7 7 7 7 8 8 8 8 8 9 10 10 10 10 10 9 8 7 7 7
7 7 7 7 7 7 7 7 6 6 6 6 6 6 6 6 6 6 6 6 6 7 7 7 7 7 7 7 7 7 7 7 7 7 8 8 8 8 8 8 8 8 7 7 7 7 7 7 7 7 8 8 8 8 9 9 9 10 10 9 9 8 8
7 8 8 8 7 7 7 7 7 7 6 6 6 6 6 6 6 6 6 7 6 7 7 7 7 7 7 7 7 7 7 7 7 7 8 8 8 8 8 8 8 8 8 7 7 7 7 7 7 7 7 7 7 8 8 8 8 9 9 9 9 9 9
7 7 7 7 7 7 7 7 7 7 7 7 7 7 6 6 6 6 7 6 6 7 7 7 7 7 7 7 7 7 8 8 8 8 8 8 8 8 7 8 7 7 7 7 7 7 7 6 6 6 6 6 6 6 7 7 7 8 8 8 8 8 8
6 6 6 6 6 6 7 7 7 8 8 8 8 7 7 7 7 7 6 6 7 7 6 7 7 7 7 7 7 7 7 7 7 7 7 7 7 7 7 7 6 6 6 6 6 7 7 6 6 6 6 6 6 6 7 7 7 8 8 8 8 9 9
6 6 6 6 6 6 7 7 7 8 8 8 8 8 7 7 7 7 7 7 7 7 7 7 8 7 7 7 7 7 7 6 6 7 6 6 7 6 6 6 6 6 6 6 6 6 7 7 7 7 7 6 6 6 7 7 7 8 8 8 8 8 9
Wind_Speed
106 106 106 107 107 108 108 109 110 112 113 114 114 114 114 115 115 115 115 115 115 116 117 118 118 119 120 122 123 124 124 124 125 125 126 126 126 126 126 126 126 125 122 121 121 121 121 122 123 123 123 123 123 122 121 120 119 119 119 119 119 120 121
110 110 110 110 110 111 111 112 113 114 115 116 116 117 117 118 118 118 118 118 118 119 120 121 121 121 122 124 126 126 126 126 127 128 128 128 128 127 128 128 129 127 125 124 123 123 123 123 123 123 124 124 124 124 123 122 121 122 122 122 122 123 123
115 114 114 114 114 114 115 115 116 117 117 118 118 119 119 120 120 120 120 121 121 122 123 124 124 124 125 127 128 128 128 129 129 130 130 130 130 130 129 130 130 130 128 127 126 126 125 125 124 124 125 125 125 126 125 124 124 125 125 124 124 125 125
118 118 118 118 118 118 118 118 118 119 119 120 120 121 121 122 122 123 123 124 124 125 126 126 126 126 127 129 130 129 130 131 131 132 132 132 132 132 132 132 133 132 131 130 129 128 127 127 127 126 126 126 126 127 127 127 127 127 126 126 126 126 126
121 121 121 121 121 121 121 121 121 122 122 122 123 123 124 124 125 126 126 127 127 128 128 128 128 128 130 131 132 131 132 133 134 134 134 134 134 134 134 135 135 135 134 134 133 131 130 130 129 128 128 128 128 128 128 128 128 128 128 127 127 128 128
122 122 123 123 124 124 124 124 125 125 125 125 125 126 127 127 128 128 129 129 129 130 130 131 131 131 132 133 133 133 134 134 135 136 136 136 136 136 137 137 137 137 137 136 136 135 134 133 131 131 130 130 130 130 129 129 129 130 130 130 131 131 131
121 122 124 124 125 126 127 127 127 128 128 128 128 128 129 129 130 131 131 131 132 132 133 133 133 133 134 135 135 135 135 136 137 137 137 137 137 138 138 138 139 139 139 139 138 138 137 136 135 134 133 132 132 132 132 132 132 133 133 134 134 133 133
122 122 123 124 125 127 127 128 129 129 130 130 130 130 130 131 132 132 133 133 134 134 135 135 135 135 135 136 136 136 137 137 138 138 138 138 139 139 140 140 140 141 141 141 141 141 140 139 138 136 135 135 134 134 134 134 134 134 134 134 134 133 132
122 123 124 125 125 126 127 128 129 130 131 131 131 132 132 132 133 134 134 135 135 136 136 136 137 137 137 137 138 138 138 139 139 140 140 140 140 141 142 142 142 142 143 143 142 142 141 140 138 136 135 135 134 134 134 133 133 132 132 132 131 130 129
122 123 124 124 125 126 127 128 128 129 130 131 132 132 133 133 134 134 135 135 135 136 137 137 138 138 138 138 139 139 139 140 140 141 141 141 142 142 142 142 142 142 142 141 141 140 139 138 136 134 134 133 133 133 133 132 131 131 130 130 128 126 125
119 121 122 123 124 124 125 126 127 127 128 129 130 131 132 132 133 134 134 135 135 135 136 137 137 138 138 138 139 139 139 140 140 140 140 140 141 141 141 141 140 140 140 139 139 138 137 136 134 133 133 132 132 132 131 131 130 129 128 126 125 124 123
116 117 118 119 119 120 121 121 123 123 124 125 126 127 128 129 130 130 131 132 133 133 134 135 135 136 136 136 137 137 138 138 138 138 138 139 139 139 138 138 138 138 138 138 137 136 135 134 133 132 131 131 130 130 129 128 127 126 125 124 123 122 122
114 114 114 115 115 115 116 117 117 118 119 120 121 122 123 123 124 125 126 127 128 129 130 131 131 132 132 133 134 134 135 135 135 136 136 136 136 136 135 135 135 136 135 135 134 133 131 130 130 130 129 128 128 128 127 126 125 124 124 123 121 121 120
110 110 110 110 111 111 112 113 113 114 115 115 116 117 118 119 119 120 121 122 123 124 125 125 126 127 127 128 128 129 130 131 131 132 132 132 132 131 131 131 131 131 131 131 130 128 127 127 127 127 126 126 126 125 124 124 123 122 121 120 118 118 118
104 104 105 105 106 106 107 108 109 110 111 111 112 113 114 114 115 116 116 117 117 118 119 120 121 121 121 122 123 124 125 126 126 126 126 126 126 126 126 126 126 126 126 126 126 125 124 124 124 124 124 123 123 122 121 121 120 119 117 116 115 114 114
99 99 100 101 101 102 103 103 104 105 106 107 108 109 109 110 111 112 113 113 113 114 114 115 116 116 116 117 117 118 119 120 120 120 120 120 121 121 121 121 121 122 123 122 122 121 121 121 121 120 120 119 118 117 117 117 115 113 112 111 110 109 109
95 95 95 96 97 97 98 99 99 100 102 103 103 104 105 105 107 107 108 108 109 109 109 109 110 110 111 111 111 112 114 115 115 115 115 116 116 116 116 116 117 118 118 118 118 117 116 115 115 115 114 113 112 111 111 110 108 107 106 106 105 104 104
92 92 91 92 92 93 93 94 95 96 97 98 98 99 99 100 101 101 102 102 103 103 103 103 104 104 105 105 106 107 108 109 110 110 110 111 111 111 111 111 112 113 113 112 112 110 109 108 108 108 107 107 106 106 105 104 103 103 103 102 101 102 102
89 89 88 88 88 89 90 91 92 92 93 94 94 94 94 95 96 96 97 97 97 98 98 99 99 99 100 100 101 102 104 105 105 105 105 106 106 105 104 105 107 107 106 106 105 104 103 102 102 102 102 102 102 101 101 100 100 101 100 100 100 100 100
85 85 85 85 85 86 86 87 88 89 90 90 91 91 91 91 91 92 92 92 93 93 94 95 95 95 95 96 97 98 99 100 101 101 100 100 99 99 99 100 101 100 100 100 100 99 99 99 98 98 98 98 99 99 99 98 99 99 98 98 98 98 98
82 83 83 83 83 84 84 84 85 86 86 86 87 87 87 87 87 88 88 88 88 89 90 90 91 91 91 92 92 93 94 95 96 97 95 94 94 95 96 96 96 96 97 97 96 96 96 96 96 96 95 96 97 98 97 97 97 97 97 97 96 96 95
80 81 81 82 82 83 83 83 83 84 84 84 84 84 84 84 84 84 84 84 85 86 86 87 87 88 89 89 89 90 90 91 92 93 93 92 92 93 93 93 93 93 94 94 93 94 94 94 95 95 95 94 95 95 96 96 95 95 96 95 94 94 93
78 79 80 81 81 81 81 81 81 82 82 83 83 83 82 82 82 82 82 82 83 83 84 85 86 87 88 89 88 88 88 89 90 91 91 91 91 91 92 92 92 91 92 92 91 91 92 93 94 94 94 94 94 94 95 94 93 93 94 94 94 94 93
76 77 78 79 79 79 78 79 79 80 80 81 81 81 80 80 80 79 80 80 81 82 84 85 86 86 87 87 87 87 87 87 88 89 89 90 90 90 91 91 91 90 91 91 91 90 90 91 93 94 94 94 95 95 94 93 92 92 92 93 93 94 93
75 75 77 78 78 78 77 77 77 78 78 78 79 79 79 79 78 78 78 79 80 82 83 84 85 85 85 86 86 86 87 87 87 88 89 90 90 91 91 91 90 90 89 90 90 90 90 90 91 92 93 94 94 93 92 92 91 91 91 90 91 91 91
72 73 75 76 76 76 76 77 76 76 76 76 75 76 77 77 77 77 77 78 80 82 82 82 83 83 83 84 85 86 87 87 87 87 88 89 89 90 90 90 90 89 88 87 87 88 89 89 89 90 90 91 91 91 91 91 91 91 90 89 89 88 88
69 71 72 74 73 73 74 74 75 75 74 73 72 72 73 74 75 76 76 78 79 80 80 79 80 80 81 82 84 85 85 86 86 86 87 87 88 88 88 88 88 87 86 85 85 85 86 87 88 89 89 90 90 89 90 90 91 90 90 89 89 87 86
67 68 69 70 70 70 71 72 73 73 72 70 70 69 69 71 73 73 74 75 77 77 77 77 77 78 79 80 81 82 83 84 84 85 85 86 86 86 87 87 86 85 85 84 84 84 83 84 85 87 88 89 90 90 90 90 90 90 89 89 88 86 84
65 66 67 68 68 68 69 70 71 72 71 69 68 67 68 71 72 70 70 73 75 75 75 75 75 76 77 78 78 79 80 81 82 83 83 84 85 86 86 86 86 85 84 84 83 83 82 83 83 84 85 87 88 89 90 90 90 89 88 87 86 84 83
64 65 65 66 67 68 68 69 70 70 70 68 67 66 68 70 70 68 68 71 73 73 72 73 74 74 75 76 76 77 78 79 80 81 82 82 83 84 85 85 86 85 85 84 83 82 82 82 82 82 83 83 84 86 87 89 89 88 87 86 84 83 82
63 64 64 64 66 66 67 67 68 68 68 68 66 66 67 68 67 66 67 69 71 72 71 72 72 73 73 74 75 76 76 77 77 78 79 81 82 82 83 83 84 84 84 83 83 82 81 81 81 81 81 81 82 83 84 85 86 87 86 85 84 83 82
61 62 62 63 63 64 66 67 67 67 67 67 66 67 67 67 65 65 66 67 68 69 70 70 71 71 72 73 73 74 75 75 76 76 77 78 79 80 81 81 82 82 82 82 82 81 80 79 79 80 80 80 80 80 81 82 83 83 84 84 83 82 82
58 59 60 61 61 62 63 64 65 66 66 66 66 66 66 66 65 65 66 66 67 68 68 69 69 70 71 71 72 72 73 74 75 75 76 77 77 78 79 80 80 80 81 81 80 79 79 78 78 77 77 78 78 78 78 79 79 79 80 80 80 81 81
55 55 57 59 60 60 60 61 62 63 64 65 65 65 65 65 65 65 64 65 66 67 67 67 68 68 69 70 70 71 72 73 74 74 75 76 76 76 77 77 77 77 77 77 78 78 77 77 76 76 75 75 75 76 75 75 76 76 76 77 77 78 79
56 55 55 56 56 56 57 58 59 60 61 62 63 64 64 64 65 65 64 64 65 66 66 67 67 67 67 68 68 69 69 70 71 72 72 73 73 74 74 74 74 74 73 73 74 75 75 75 75 74 74 73 73 73 73 73 73 73 73 74 74 75 76
57 56 55 55 55 54 54 55 56 56 57 59 60 61 62 63 64 64 64 65 65 65 66 66 66 67 67 67 67 67 67 68 68 69 70 70 70 71 71 71 71 71 71 71 71 71 71 72 72 73 73 73 72 71 71 71 71 71 71 71 72 72 73
Wind_Direction
267 266 266 266 266 266 266 266 267 267 267 267 267 267 267 268 268 268 268 268 267 268 268 268 268 268 268 269 269 269 269 269 269 269 270 270 270 271 271 271 271 271 270 270 270 270 269 270 270 270 271 271 271 271 271 271 271 271 271 271 270 270 270
267 266 266 266 266 265 265 265 265 266 266 266 267 267 267 267 267 268 268 268 268 268 268 268 268 268 269 269 269 269 270 270 270 270 270 271 271 271 271 271 272 272 271 271 271 270 270 270 270 271 271 271 272 272 272 272 272 271 271 271 270 270 270
267 267 267 266 266 266 265 265 265 265 265 266 266 266 267 267 267 268 268 268 268 268 268 268 268 269 269 269 270 270 270 271 271 271 271 272 272 272 272 272 272 273 272 272 272 271 271 271 271 271 271 271 272 272 272 272 272 271 271 271 271 270 270
267 266 266 266 266 266 266 266 266 266 266 266 266 266 266 267 267 267 267 267 267 268 268 268 268 269 269 269 270 270 271 271 271 272 272 272 272 273 273 273 273 273 273 273 273 272 272 272 272 272 272 272 272 272 272 272 272 272 271 271 271 271 270
266 266 266 266 266 266 265 265 265 265 265 265 266 266 266 266 266 266 266 267 267 267 268 268 268 268 269 269 269 270 270 271 271 272 272 272 273 273 273 273 273 274 274 274 274 274 273 273 273 273 273 272 272 272 272 272 272 272 272 272 271 271 270
266 266 266 266 266 265 265 265 265 265 264 264 265 265 265 265 266 266 266 266 267 267 267 267 268 268 268 269 269 270 270 270 271 271 272 272 273 273 273 273 274 274 274 274 274 274 274 274 274 273 273 273 273 273 273 273 272 272 272 271 271 270 270
267 266 266 266 266 266 265 265 265 265 264 264 264 264 264 265 265 265 266 266 266 266 267 267 267 267 268 268 269 269 270 270 271 271 272 272 272 273 273 273 274 274 274 274 274 274 274 274 274 274 274 274 273 273 273 273 273 272 272 271 271 271 271
267 267 267 267 266 266 266 266 265 265 265 265 264 264 264 264 264 265 265 265 266 266 266 267 267 267 268 268 268 269 269 270 270 271 271 271 272 272 272 272 272 273 273 273 274 274 274 274 274 274 274 274 274 274 273 273 272 272 272 271 271 271 271
268 268 268 268 268 267 267 267 266 266 266 266 265 265 265 264 264 264 265 265 265 266 266 266 267 267 267 268 268 268 269 269 269 270 270 270 271 271 271 271 272 272 272 273 273 273 274 274 274 274 274 274 274 273 273 272 272 272 272 271 271 271 271
267 267 268 268 268 268 268 268 267 267 267 267 266 266 266 265 265 265 265 266 266 266 266 267 267 267 268 268 268 269 269 269 269 270 270 270 270 270 271 271 271 272 272 272 273 273 273 274 274 274 274 274 274 273 273 272 272 272 271 271 271 271 271
267 267 267 267 267 267 267 267 267 267 267 267 267 266 266 266 266 266 266 266 266 267 267 267 267 268 268 268 268 269 269 269 269 269 270 270 270 270 271 271 271 272 272 272 273 273 273 274 274 274 274 274 273 273 273 272 272 272 272 272 272 272 271
270 269 269 269 268 268 268 267 267 267 267 267 266 266 266 266 266 266 266 266 266 266 266 266 267 267 267 268 268 268 268 268 269 269 269 270 270 270 271 271 271 272 272 272 272 273 273 273 273 273 273 273 273 273 272 272 272 272 272 272 272 272 271
272 272 271 271 270 270 270 269 268 268 268 267 267 266 266 265 265 265 265 265 265 265 265 266 266 266 266 267 267 267 268 268 269 269 269 269 270 270 270 271 271 271 271 272 272 272 272 272 272 272 272 272 272 272 272 272 272 272 272 272 272 272 271
273 272 272 271 271 271 270 270 269 269 268 268 268 267 267 267 266 266 266 266 266 266 266 266 266 266 266 267 267 268 268 268 268 269 269 269 269 270 270 270 270 271 271 271 271 271 272 272 272 272 272 272 272 272 272 272 272 272 272 272 272 272 272
273 272 272 271 271 270 270 269 269 269 268 268 268 268 268 268 267 267 267 267 266 267 267 267 267 267 267 267 267 268 268 268 268 268 269 269 269 269 270 270 270 271 271 271 271 271 271 271 271 271 271 271 271 271 271 271 271 271 272 272 272 271 271
273 273 272 272 271 271 270 270 269 269 269 269 269 269 268 268 268 268 268 268 268 268 268 268 268 268 268 268 268 268 269 269 269 269 269 269 270 270 270 270 270 271 271 271 271 271 271 271 271 271 271 271 271 271 271 271 271 271 271 271 270 270 270
274 273 273 272 272 272 271 271 271 270 270 270 270 269 269 269 269 269 269 269 269 269 269 269 269 269 270 270 270 270 270 270 270 270 270 270 270 270 270 271 271 270 270 270 270 270 270 270 271 271 271 271 271 271 271 271 271 271 270 270 269 269 269
275 274 274 273 273 273 273 272 272 271 271 271 270 270 270 270 270 270 270 270 270 271 271 271 271 271 271 271 271 270 270 270 270 270 270 270 270 270 270 270 270 270 270 270 270 270 270 270 271 271 271 270 270 270 270 270 270 270 270 270 270 269 269
275 275 275 274 274 273 273 273 273 272 272 272 271 271 271 271 271 271 271 271 271 271 271 271 271 270 270 270 270 270 269 269 269 269 269 269 269 269 269 269 269 269 269 270 270 270 270 270 270 270 270 270 271 271 271 271 270 270 270 270 270 269 269
276 276 275 275 274 274 273 273 273 272 272 272 272 272 272 272 271 271 271 271 271 271 270 270 270 269 269 269 269 268 269 269 269 269 268 269 269 269 269 269 269 269 270 270 270 270 270 270 270 270 271 271 271 271 271 271 270 270 270 270 270 270 270
277 277 276 276 275 275 274 274 273 273 273 273 273 273 272 272 272 271 271 271 271 270 270 270 270 270 269 269 269 268 269 269 269 269 269 269 270 270 269 269 269 270 270 271 271 271 271 271 271 271 271 271 271 271 271 270 270 270 270 270 270 270 270
277 277 277 277 277 276 276 276 276 275 275 275 274 274 274 273 273 273 272 272 272 272 271 271 271 271 270 270 269 269 269 269 270 270 271 271 270 270 270 271 271 271 271 271 271 272 272 272 272 272 271 271 270 270 270 270 270 270 270 270 270 270 270
278 278 277 277 277 277 277 277 277 277 277 277 276 276 276 275 275 275 275 274 274 273 273 272 272 272 271 271 271 271 271 271 271 272 272 272 272 272 272 272 272 272 272 272 271 271 272 272 272 271 271 271 270 270 269 269 270 270 270 271 270 270 269
279 279 278 278 278 278 278 278 278 277 277 277 277 277 277 277 277 276 276 275 275 274 274 273 273 273 273 273 273 273 273 273 273 273 273 273 273 273 272 272 272 272 272 272 272 271 271 271 271 271 271 271 270 270 270 270 270 269 269 269 269 269 269
280 279 279 279 279 279 279 279 278 278 278 278 278 278 278 278 278 277 277 276 275 274 273 273 273 273 274 274 274 274 274 273 273 273 272 272 272 272 272 272 272 272 271 272 272 272 271 271 270 270 270 270 270 270 270 270 269 268 267 267 267 268 268
279 279 279 279 279 279 279 279 279 278 278 278 278 278 278 278 278 277 277 275 274 274 273 274 274 274 275 275 275 274 274 274 273 273 272 272 272 272 272 272 272 272 272 271 271 271 271 271 271 270 270 270 270 270 270 270 269 269 268 268 267 267 267
279 278 278 279 279 279 279 279 279 278 278 278 278 277 278 278 277 277 276 275 275 274 274 275 275 275 274 274 274 274 274 274 274 274 274 273 273 273 272 272 272 272 271 271 271 270 271 271 272 272 271 271 271 270 270 270 269 269 269 268 268 267 267
280 280 280 280 281 281 280 280 280 279 279 279 279 278 278 277 276 275 276 276 276 275 275 275 275 274 274 274 274 274 274 274 275 275 274 274 274 274 273 273 273 272 272 272 271 271 270 270 270 271 271 272 272 271 271 270 269 269 268 268 267 267 267
283 283 283 283 283 283 283 282 282 282 282 281 281 280 279 278 276 276 276 276 276 276 276 276 275 275 274 274 274 274 274 274 274 274 274 274 275 275 275 275 274 274 273 272 272 271 271 270 269 269 269 270 270 271 271 271 270 270 269 269 268 268 267
286 286 286 286 285 285 284 284 284 284 284 283 282 281 279 278 278 278 278 277 276 276 276 275 275 275 274 274 274 274 274 274 274 274 274 274 274 274 274 275 275 275 274 274 273 272 271 271 270 270 269 269 269 270 271 271 272 272 271 271 270 269 268
287 287 287 286 286 286 286 285 285 285 285 284 283 282 280 279 279 279 277 277 277 277 277 276 276 275 275 275 274 274 274 274 273 273 274 274 274 274 274 274 274 274 274 274 274 273 273 272 272 271 271 270 270 270 270 270 271 272 272 272 272 271 270
287 288 287 287 287 287 287 287 286 286 286 285 285 283 283 282 282 280 279 278 278 278 278 277 277 277 276 276 276 276 275 275 275 274 274 274 274 275 275 275 275 275 275 275 275 275 274 274 273 272 272 271 271 270 270 270 270 271 271 272 272 272 272
287 288 288 288 287 287 287 287 287 287 287 286 286 285 285 284 283 282 281 281 280 279 279 279 278 278 278 278 277 277 277 277 277 276 276 275 275 275 275 275 275 276 276 276 276 276 275 274 274 273 272 272 271 271 270 270 270 270 270 270 271 271 271
287 287 287 287 287 287 286 286 286 287 287 287 286 286 286 285 284 283 282 282 281 281 280 280 279 279 279 278 278 278 278 277 277 277 277 277 276 276 276 276 275 276 276 276 277 277 276 276 275 274 274 273 272 272 271 271 270 270 270 270 270 270 270
291 289 288 287 287 287 287 286 286 286 286 286 286 286 286 286 285 285 284 284 283 283 282 282 281 280 280 279 279 279 278 278 278 278 277 278 278 278 277 277 277 277 276 276 276 276 277 277 276 276 275 274 274 273 272 272 271 270 270 270 269 269 269
293 292 291 290 289 289 288 287 286 286 285 285 285 286 286 286 286 286 286 285 285 284 284 284 284 283 283 283 282 282 281 281 280 280 280 280 280 279 279 279 279 279 278 278 277 276 276 276 276 276 276 276 275 274 273 272 271 271 270 270 269 268 268